TimeAST,TemperatureF,Dew PointF,Humidity,Sea Level PressureIn,VisibilityMPH,Wind Direction,Wind SpeedMPH,Gust SpeedMPH,PrecipitationIn,Events,Conditions,WindDirDegrees,DateUTC
12:56 AM,80.1,75.9,87,29.91,10.0,Calm,Calm,-,N/A,,Scattered Clouds,0,2012-10-18 04:56:00
1:56 AM,80.1,75.0,85,29.89,10.0,SW,3.5,-,N/A,,Scattered Clouds,230,2012-10-18 05:56:00
2:56 AM,79.0,75.0,88,29.89,10.0,Calm,Calm,-,N/A,,Partly Cloudy,0,2012-10-18 06:56:00
3:56 AM,79.0,75.0,88,29.87,10.0,Calm,Calm,-,N/A,,Partly Cloudy,0,2012-10-18 07:56:00
4:56 AM,78.1,75.0,90,29.87,10.0,East,3.5,-,N/A,,Partly Cloudy,100,2012-10-18 08:56:00
5:56 AM,78.1,75.0,90,29.88,10.0,Calm,Calm,-,N/A,,Scattered Clouds,0,2012-10-18 09:56:00
6:56 AM,79.0,73.9,84,29.90,10.0,Calm,Calm,-,N/A,,Scattered Clouds,0,2012-10-18 10:56:00
7:56 AM,82.0,75.9,82,29.91,10.0,Calm,Calm,-,N/A,,Scattered Clouds,0,2012-10-18 11:56:00
8:56 AM,84.9,77.0,77,29.93,10.0,East,6.9,-,N/A,,Scattered Clouds,100,2012-10-18 12:56:00
9:56 AM,86.0,77.0,74,29.93,10.0,East,8.1,-,N/A,,Scattered Clouds,80,2012-10-18 13:56:00
10:56 AM,88.0,77.0,70,29.92,10.0,ENE,11.5,-,N/A,,Scattered Clouds,60,2012-10-18 14:56:00
11:56 AM,88.0,77.0,70,29.91,10.0,ENE,17.3,-,N/A,,Scattered Clouds,60,2012-10-18 15:56:00
12:56 PM,89.1,75.9,65,29.88,10.0,ENE,12.7,-,N/A,,Scattered Clouds,70,2012-10-18 16:56:00
1:56 PM,86.0,75.0,70,29.86,10.0,ENE,12.7,-,N/A,,Scattered Clouds,70,2012-10-18 17:56:00
2:56 PM,86.0,75.0,70,29.85,10.0,East,9.2,-,N/A,,Scattered Clouds,100,2012-10-18 18:56:00
3:56 PM,84.9,75.9,74,29.86,10.0,East,9.2,-,N/A,,Scattered Clouds,80,2012-10-18 19:56:00
4:56 PM,84.9,73.9,69,29.86,10.0,ESE,8.1,-,N/A,,Scattered Clouds,110,2012-10-18 20:56:00
5:56 PM,84.0,73.9,72,29.88,10.0,ESE,4.6,-,N/A,,Scattered Clouds,110,2012-10-18 21:56:00
6:56 PM,82.9,75.0,77,29.90,10.0,ESE,6.9,-,N/A,,Scattered Clouds,110,2012-10-18 22:56:00
7:56 PM,82.9,75.0,77,29.92,10.0,ESE,6.9,-,N/A,,Scattered Clouds,110,2012-10-18 23:56:00
8:56 PM,82.0,75.0,79,29.94,10.0,East,4.6,-,N/A,,Partly Cloudy,90,2012-10-19 00:56:00
9:56 PM,81.0,75.0,82,29.94,10.0,East,5.8,-,N/A,,Scattered Clouds,80,2012-10-19 01:56:00
10:56 PM,80.1,75.0,85,29.94,10.0,Calm,Calm,-,0.10,,Mostly Cloudy,0,2012-10-19 02:56:00
11:56 PM,78.1,73.9,87,29.94,10.0,Calm,Calm,-,0.14,,Scattered Clouds,0,2012-10-19 03:56:00